Malmstrom AFB, MT

6:25 PM MDT on September 24, 2017 (GMT -0600)
Malmstrom AFB

Weather History for KGFA - December, 2013

Change the Weather History Date:

Wednesday, December 11, 2013

  Actual Average (KGTF) Record (KGTF)
Temperature  
Mean Temperature 28 °F -  
Max Temperature 36 °F 37 °F 60 °F (1993)
Min Temperature 21 °F 18 °F -26 °F (1932)
Degree Days  
Heating Degree Days 36    
Moisture  
Dew Point 14 °F    
Average Humidity 55    
Maximum Humidity 71    
Minimum Humidity 34    
Precipitation  
Precipitation 0.00 in - - ()
Snow  
Snow 0.00 in - - ()
Snow Depth 3.00 in    
Sea Level Pressure  
Sea Level Pressure 30.30 in    
Wind  
Wind Speed 17 mph (SSW)    
Max Wind Speed 32 mph    
Max Gust Speed 39 mph    
Visibility 10 miles    
Events      
Averages and records for this station are not official NWS values.
T = Trace of Precipitation, MM = Missing Value Source: NWS Daily Summary

Daily Weather History Graph

Daily Weather History Graph

Search for Another Location

Airport or City:

Trip Planner

Search our weather history database for the weather conditions in past years. The results will help you decide how hot, cold, wet, or windy it might be!

Date:

Astronomy

Dec. 11, 2013 Rise Set
Actual Time 8:02 AM MST 4:33 PM MST
Civil Twilight 7:26 AM MST 5:09 PM MST
Nautical Twilight 6:47 AM MST 5:48 PM MST
Astronomical Twilight 6:10 AM MST 6:25 PM MST
Moon 1:26 PM MST (12/11) 2:08 AM MST (12/11)
Length of Visible Light 9h 42m
Length of Day
8h 30m
Waxing Gibbous, 72% of the Moon is Illuminated
Dec 11
Waxing Gibbous
Dec 17
Full
Dec 25
Last Quarter
Jan 1
New
Jan 7
First Quarter

Hourly Weather History & Observations

Time (MST) Temp. Windchill Dew Point Humidity Pressure Visibility Wind Dir Wind Speed Gust Speed Precip Events Conditions
12:56 AM 23.0 °F 14.7 °F -2.0 °F 34% 30.38 in - SW 6.9 mph - N/A   Clear
1:56 AM 21.0 °F 9.3 °F -0.9 °F 38% 30.36 in - SSW 11.5 mph - N/A   Clear
2:56 AM 21.9 °F 11.0 °F -0.9 °F 37% 30.36 in - SSW 10.4 mph - N/A   Clear
3:56 AM 23.0 °F 10.6 °F 3.0 °F 42% 30.34 in - SSW 13.8 mph - N/A   Clear
4:56 AM 25.3 °F 13.6 °F 10.0 °F 52% 30.33 in 7.0 mi SSW 13.8 mph - N/A   Clear
5:56 AM 24.8 °F 11.1 °F 12.0 °F 58% 30.33 in 7.0 mi SW 18.4 mph - N/A   Clear
6:56 AM 25.7 °F 11.9 °F 13.1 °F 59% 30.34 in 7.0 mi SW 19.6 mph - N/A   Clear
7:56 AM 22.1 °F 6.8 °F 14.0 °F 71% 30.34 in 10.0 mi SSW 20.7 mph - N/A   Clear
8:56 AM 24.1 °F 9.0 °F 15.1 °F 69% 30.35 in 10.0 mi SW 21.9 mph 33.4 mph N/A   Clear
9:56 AM 31.1 °F 18.3 °F 17.1 °F 56% 30.33 in 10.0 mi SW 21.9 mph 33.4 mph N/A   Clear
10:56 AM 30.0 °F 16.6 °F 17.1 °F 59% 30.32 in 10.0 mi SW 23.0 mph 35.7 mph N/A   Clear
11:56 AM 30.9 °F 18.4 °F 18.0 °F 59% 30.32 in 10.0 mi SW 20.7 mph 27.6 mph N/A   Clear
12:56 PM 32.0 °F 19.2 °F 17.1 °F 54% 30.29 in 10.0 mi SW 23.0 mph 29.9 mph N/A   Clear
1:56 PM 32.0 °F 19.5 °F 17.1 °F 54% 30.30 in 10.0 mi SW 21.9 mph 32.2 mph N/A   Clear
2:56 PM 32.0 °F 19.8 °F 18.0 °F 56% 30.29 in 10.0 mi SSW 20.7 mph 28.8 mph N/A   Clear
3:56 PM 30.9 °F 20.2 °F 18.0 °F 59% 30.29 in 10.0 mi South 15.0 mph - N/A   Clear
4:56 PM 30.9 °F 17.2 °F 18.0 °F 59% 30.27 in 10.0 mi SSW 25.3 mph - N/A   Clear
5:56 PM 30.0 °F 16.9 °F 17.1 °F 59% 30.27 in 10.0 mi SSW 21.9 mph - N/A   Clear
6:56 PM 30.9 °F 17.2 °F 18.0 °F 59% 30.25 in 10.0 mi SSW 25.3 mph 32.2 mph N/A   Clear
7:56 PM 32.0 °F 19.2 °F 21.0 °F 64% 30.24 in 10.0 mi SSW 23.0 mph 33.4 mph N/A   Overcast
8:56 PM 34.0 °F 21.5 °F 21.0 °F 59% 30.22 in 10.0 mi SSW 24.2 mph 33.4 mph N/A   Overcast
9:56 PM 35.1 °F 22.0 °F 21.0 °F 57% 30.21 in 10.0 mi SSW 28.8 mph 38.0 mph N/A   Overcast
10:56 PM 36.0 °F 23.0 °F 21.0 °F 55% 30.22 in 10.0 mi SSW 29.9 mph 36.8 mph N/A   Overcast
11:56 PM 36.0 °F 22.6 °F 21.9 °F 57% 30.20 in 9.0 mi SSW 32.2 mph 39.1 mph N/A   Clear